NOAA 17 DEB, 48718

Orbit data source: Space-Track

NOAA 17 DEB, 48718 is space debris in SSO originally from a launch on Mon, 24 Jun 2002 UTC launched from the Air Force Western Test Range (AFWTR). Debris objects in space refer to the collection of defunct objects orbiting the Earth. Examples of debris include non-operational satellites, rocket bodies, and fragments generated from explosions, collisions, or faulty payload assembly.

Loading next visibility...
Identifier
48718, 2002-032BB
Orbit
SSO
Country
Flag of USUS
Related business
Manufacturer
Unknown
Mission
Spacecraft
Bus & Motor
Unknown
Mass
Unknown
Launch date (UTC)
2002-06-24 (24 years ago)
Launch vehicle
Unknown
Launch site
Air Force Western Test Range (AFWTR)
Object type
Payload
Rocket body
Debris
Shape & HBR
Unknown shape, 0.1 m
Radar Cross Section
Medium (>0.1 m² and <1 m²)

Expand to show TLE details & history
Last TLE update: 3 days ago

TLE from 3 days ago
0 NOAA 17 DEB
1 48718U 02032BB  26170.13766736  .00007604  00000-0  14680-2 0  9998
2 48718  98.9594 238.7908 0017883 144.8673 215.3710 14.63662508276488
Epoch: 2026-06-19T03:18Z
TLE epoch observation values (Epoch: 2026-06-19T03:18:14.459Z)
Latitude
-0.00002°
Longitude
-78.1404°
Altitude
694.642 km
Speed
7.503 km/s
True Right ascension
15h 55m 09s
True Declination
0° 00' 00"
Sunlit
Object was in full shadow at epoch
Visualization orbit readout
Latitude
Unknown
Longitude
Unknown
Altitude
Unknown
Speed
Unknown
Apparent Right ascension
Unknown
Apparent Declination
Unknown
Sunlit
N/A
Visualization observer readout
Local Sidereal Time
21:36:35
Azimuth
Unknown
Elevation
Unknown
Doppler factor
Unknown
Orbital elements
Apogee altitude
691.105 km
Perigee altitude
665.866 km
Semi-major axis
7,056.623 km
Eccentricity
0.00179
Inclination
98.9594°
RAAN
238.7908°
Arg. of periapsis
144.8673°
True anomaly
215.25259°
Mean anomaly
215.371°
Eccentric anomaly
215.31177°
Mean motion
3.66141 °/min
Orbital period
98.32 mins
BSTAR
0.001468
Loading maneuver chart data...
Computing Atmospheric mass density...

Documentation

Showing up to 5 results
|